Charlevoix, MI

3:16 AM EDT on October 01, 2016 (GMT -0400)
Charlevoix Municipal

Weather History for KCVX - November, 2012

Change the Weather History Date:

Friday, November 23, 2012

  Actual Average Record
Temperature  
Mean Temperature 44 °F -  
Max Temperature 55 °F 40 °F 60 °F (2003)
Min Temperature 31 °F 27 °F 18 °F (2013)
Degree Days  
Heating Degree Days 22    
Moisture  
Dew Point 31 °F    
Average Humidity 78    
Maximum Humidity 95    
Minimum Humidity 67    
Precipitation  
Precipitation 0.00 in - - ()
Sea Level Pressure  
Sea Level Pressure 29.71 in    
Wind  
Wind Speed 21 mph (West)    
Max Wind Speed 34 mph    
Max Gust Speed 50 mph    
Visibility 7 miles    
Events Snow    
Averages and records for this station are not official NWS values.
T = Trace of Precipitation, MM = Missing Value Source: NWS Daily Summary

Daily Weather History Graph

Daily Weather History Graph

Search for Another Location

Airport or City:

Trip Planner

Search our weather history database for the weather conditions in past years. The results will help you decide how hot, cold, wet, or windy it might be!

Date:

Astronomy

Nov. 23, 2012 Rise Set
Actual Time 7:50 AM EST 5:04 PM EST
Civil Twilight 7:18 AM EST 5:36 PM EST
Nautical Twilight 6:41 AM EST 6:13 PM EST
Astronomical Twilight 6:06 AM EST 6:48 PM EST
Moon 2:28 PM EST (11/23) 2:57 AM EST (11/23)
Length of Visible Light 10h 18m
Length of Day
9h 13m
Waxing Gibbous, 79% of the Moon is Illuminated
Nov 23
Waxing Gibbous
Nov 28
Full
Dec 6
Last Quarter
Dec 13
New
Dec 20
First Quarter

Hourly Weather History & Observations

Time (EST) Temp. Windchill Dew Point Humidity Pressure Visibility Wind Dir Wind Speed Gust Speed Precip Events Conditions
12:15 AM 56.3 °F - 47.3 °F 72% 29.57 in 10.0 mi SSW 9.2 mph 20.7 mph N/A   Overcast
12:35 AM 56.3 °F - 47.5 °F 72% 29.56 in 10.0 mi SSW 6.9 mph 21.9 mph N/A   Overcast
12:55 AM 55.9 °F - 47.5 °F 73% 29.55 in 10.0 mi SSW 10.4 mph 16.1 mph N/A   Overcast
1:15 AM 55.8 °F - 47.3 °F 73% 29.54 in 10.0 mi SSW 13.8 mph 19.6 mph N/A   Overcast
1:35 AM 55.4 °F - 47.1 °F 74% 29.53 in 10.0 mi SW 11.5 mph 20.7 mph N/A   Overcast
1:54 AM 55.2 °F - 47.1 °F 74% 29.52 in 10.0 mi SW 12.7 mph 17.3 mph N/A   Overcast
2:15 AM 54.7 °F - 46.0 °F 73% 29.52 in 10.0 mi SW 12.7 mph 26.5 mph N/A   Overcast
2:35 AM 51.1 °F - 43.0 °F 74% 29.53 in 10.0 mi SW 20.7 mph 31.1 mph N/A   Overcast
2:54 AM 48.4 °F - 40.5 °F 74% 29.55 in 10.0 mi SW 20.7 mph 32.2 mph N/A   Overcast
3:15 AM 46.2 °F 37.9 °F 38.5 °F 74% 29.56 in 10.0 mi SW 24.2 mph 33.4 mph N/A   Overcast
3:35 AM 45.3 °F 37.3 °F 37.6 °F 74% 29.56 in 10.0 mi WSW 20.7 mph 33.4 mph N/A   Overcast
3:54 AM 44.6 °F 35.9 °F 37.4 °F 76% 29.56 in 10.0 mi WSW 23.0 mph 35.7 mph N/A   Overcast
4:14 AM 43.3 °F 34.0 °F 35.8 °F 75% 29.57 in 10.0 mi SW 24.2 mph 38.0 mph N/A   Overcast
4:34 AM 41.5 °F 32.4 °F 37.4 °F 85% 29.58 in 5.0 mi WSW 20.7 mph 29.9 mph N/A   Drizzle
4:55 AM 41.0 °F 31.1 °F 35.1 °F 79% 29.58 in 10.0 mi WSW 23.0 mph 32.2 mph N/A   Overcast
5:14 AM 40.5 °F 30.9 °F 34.3 °F 79% 29.58 in 10.0 mi WSW 20.7 mph 31.1 mph N/A   Overcast
5:35 AM 39.6 °F 28.1 °F 33.3 °F 78% 29.59 in 10.0 mi WSW 28.8 mph 35.7 mph N/A   Overcast
5:54 AM 39.0 °F 29.0 °F 32.2 °F 76% 29.60 in 10.0 mi WSW 20.7 mph 34.5 mph N/A   Overcast
6:15 AM 38.1 °F 27.3 °F 31.5 °F 77% 29.60 in 10.0 mi WSW 23.0 mph 32.2 mph N/A   Overcast
6:35 AM 37.4 °F 26.9 °F 30.9 °F 77% 29.60 in 10.0 mi WSW 20.7 mph 31.1 mph N/A   Overcast
6:55 AM 36.5 °F 25.2 °F 30.4 °F 78% 29.61 in 10.0 mi WSW 23.0 mph 31.1 mph N/A   Overcast
7:14 AM 35.8 °F 25.1 °F 29.3 °F 77% 29.60 in 10.0 mi WSW 19.6 mph 36.8 mph N/A   Overcast
7:34 AM 35.6 °F 24.5 °F 28.2 °F 75% 29.61 in 10.0 mi WSW 20.7 mph 31.1 mph N/A   Overcast
7:54 AM 35.6 °F 24.2 °F 27.9 °F 73% 29.62 in 10.0 mi SW 21.9 mph 32.2 mph N/A   Overcast
8:15 AM 35.2 °F 25.0 °F 27.1 °F 72% 29.62 in 10.0 mi WSW 17.3 mph 29.9 mph N/A   Overcast
8:35 AM 35.1 °F 23.5 °F 27.0 °F 72% 29.62 in 10.0 mi West 21.9 mph 33.4 mph N/A   Overcast
8:55 AM 35.1 °F 22.7 °F 27.1 °F 73% 29.62 in 10.0 mi West 25.3 mph 35.7 mph N/A   Overcast
9:15 AM 34.9 °F 23.0 °F 28.0 °F 76% 29.62 in 10.0 mi WSW 23.0 mph 31.1 mph N/A Snow Light Snow
9:35 AM 34.5 °F 22.8 °F 30.9 °F 87% 29.62 in 2.5 mi WSW 21.9 mph 31.1 mph N/A Snow Light Snow
9:55 AM 33.3 °F 20.3 °F 32.0 °F 95% 29.61 in 0.8 mi West 25.3 mph 32.2 mph N/A Snow Light Snow
10:14 AM 33.8 °F 20.8 °F 32.0 °F 93% 29.62 in 2.0 mi West 26.5 mph 35.7 mph N/A Snow Light Snow
10:35 AM 34.9 °F 22.5 °F 31.8 °F 89% 29.62 in 7.0 mi West 25.3 mph 31.1 mph N/A Snow Light Snow
10:55 AM 35.6 °F 22.7 °F 30.2 °F 81% 29.62 in 10.0 mi West 28.8 mph 40.3 mph N/A   Overcast
11:15 AM 35.6 °F 21.9 °F 29.1 °F 77% 29.63 in 10.0 mi West 33.4 mph 43.7 mph N/A   Overcast
11:35 AM 36.1 °F 23.0 °F 27.7 °F 71% 29.63 in 10.0 mi West 31.1 mph 40.3 mph N/A   Mostly Cloudy
11:54 AM 35.8 °F 22.8 °F 25.7 °F 67% 29.64 in 10.0 mi WNW 29.9 mph 42.6 mph N/A   Overcast
12:15 PM 34.0 °F 19.9 °F 27.7 °F 78% 29.64 in 3.0 mi WNW 32.2 mph 42.6 mph N/A Snow Light Snow
12:35 PM 32.7 °F 18.8 °F 29.7 °F 88% 29.64 in 1.0 mi West 28.8 mph 36.8 mph N/A Snow Light Snow
12:55 PM 33.4 °F 19.6 °F 29.8 °F 87% 29.64 in 5.0 mi West 29.9 mph 38.0 mph N/A Snow Light Snow
1:15 PM 32.5 °F 17.9 °F 30.4 °F 92% 29.65 in 1.0 mi WNW 32.2 mph 46.0 mph N/A Snow Light Snow
1:35 PM 32.0 °F 18.9 °F 30.7 °F 95% 29.66 in 0.2 mi WNW 24.2 mph 36.8 mph N/A Snow Snow
1:55 PM 31.6 °F 16.3 °F 28.9 °F 90% 29.67 in 0.5 mi WNW 34.5 mph 49.5 mph N/A Snow Light Snow
2:07 PM 32.0 °F 17.2 °F 28.0 °F 85% 29.67 in 2.5 mi WNW 32.2 mph 48.3 mph N/A Snow Light Snow
2:24 PM 31.8 °F 17.2 °F 27.7 °F 85% 29.69 in 1.2 mi NW 31.1 mph 42.6 mph N/A Snow Light Snow
2:55 PM 31.1 °F 15.9 °F 28.2 °F 89% 29.72 in 0.5 mi NW 32.2 mph 48.3 mph N/A Snow Snow
3:14 PM 32.0 °F 16.7 °F 27.0 °F 82% 29.72 in 0.8 mi NW 34.5 mph 43.7 mph N/A Snow Light Snow
3:35 PM 32.9 °F 18.2 °F 27.0 °F 79% 29.74 in 2.5 mi NW 33.4 mph 44.9 mph N/A Snow Light Snow
3:55 PM 32.2 °F 17.4 °F 28.6 °F 87% 29.77 in 1.2 mi NW 32.2 mph 42.6 mph N/A Snow Light Snow
4:15 PM 32.4 °F 18.1 °F 27.7 °F 83% 29.78 in 1.2 mi NW 29.9 mph 48.3 mph N/A Snow Light Snow
4:35 PM 32.0 °F 17.6 °F 29.5 °F 90% 29.80 in 0.5 mi NW 29.9 mph 42.6 mph N/A Snow Snow
4:55 PM 33.1 °F 19.3 °F 26.8 °F 78% 29.82 in 2.0 mi NW 28.8 mph 47.2 mph N/A Snow Light Snow
5:12 PM 32.9 °F 18.4 °F 27.0 °F 79% 29.83 in 2.0 mi NW 32.2 mph 43.7 mph N/A Snow Light Snow
5:34 PM 32.9 °F 18.9 °F 28.2 °F 83% 29.85 in 3.0 mi NW 29.9 mph 41.4 mph N/A Snow Light Snow
5:53 PM 32.9 °F 18.9 °F 27.7 °F 81% 29.86 in 5.0 mi NW 29.9 mph 41.4 mph N/A   Haze
6:14 PM 33.1 °F 19.6 °F 26.1 °F 75% 29.88 in 7.0 mi NW 27.6 mph 44.9 mph N/A   Mostly Cloudy
6:35 PM 32.9 °F 18.6 °F 26.1 °F 76% 29.88 in 7.0 mi NW 31.1 mph 41.4 mph N/A   Overcast
6:55 PM 32.9 °F 19.6 °F 26.1 °F 76% 29.90 in 7.0 mi NW 26.5 mph 43.7 mph N/A   Mostly Cloudy
7:14 PM 32.9 °F 19.1 °F 26.2 °F 76% 29.91 in 7.0 mi NW 28.8 mph 40.3 mph N/A   Mostly Cloudy
7:34 PM 32.7 °F 19.9 °F 25.5 °F 75% 29.92 in 10.0 mi NW 24.2 mph 38.0 mph N/A   Overcast
7:55 PM 33.1 °F 18.9 °F 25.7 °F 74% 29.92 in 10.0 mi NNW 31.1 mph 38.0 mph N/A   Overcast
8:15 PM 32.9 °F 19.3 °F 25.3 °F 74% 29.92 in 10.0 mi NW 27.6 mph 36.8 mph N/A   Overcast
8:35 PM 33.3 °F 19.6 °F 25.0 °F 72% 29.93 in 10.0 mi NW 28.8 mph 41.4 mph N/A   Overcast
8:54 PM 33.1 °F 20.3 °F 24.4 °F 71% 29.94 in 10.0 mi NW 24.2 mph 36.8 mph N/A   Overcast
9:15 PM 32.4 °F 19.1 °F 24.6 °F 73% 29.95 in 10.0 mi NW 25.3 mph 39.1 mph N/A   Overcast
9:34 PM 32.2 °F 18.4 °F 24.4 °F 73% 29.96 in 10.0 mi NW 27.6 mph 39.1 mph N/A   Overcast
9:55 PM 32.0 °F 17.4 °F 24.3 °F 73% 29.96 in 10.0 mi NW 31.1 mph 38.0 mph N/A   Mostly Cloudy
10:14 PM 32.2 °F 20.0 °F 24.6 °F 74% 29.97 in 10.0 mi NW 20.7 mph 32.2 mph N/A   Overcast
10:35 PM 32.0 °F 19.8 °F 24.4 °F 74% 29.97 in 10.0 mi NNW 20.7 mph 31.1 mph N/A   Overcast
10:54 PM 32.2 °F 20.0 °F 24.1 °F 72% 29.97 in 10.0 mi NW 20.7 mph 33.4 mph N/A   Overcast
11:15 PM 32.0 °F 18.6 °F 23.4 °F 70% 29.98 in 10.0 mi NNW 25.3 mph 36.8 mph N/A   Overcast
11:35 PM 32.0 °F 19.2 °F 23.5 °F 71% 29.98 in 10.0 mi NNW 23.0 mph 33.4 mph N/A   Overcast
11:54 PM 32.0 °F 18.6 °F 22.6 °F 68% 29.99 in 10.0 mi NNW 25.3 mph 36.8 mph N/A   Overcast